Weather History for Szolnok, Hungary

Change the Weather History Date:

Monday, November 5, 2012

  Actual Average (LHBP) Record (LHBP)
Temperature  
Mean Temperature 53 °F -  
Max Temperature 62 °F 51 °F 66 °F (2008)
Min Temperature 44 °F 34 °F 24 °F (2001)
Degree Days  
Heating Degree Days 12    
Growing Degree Days 3 (Base 50)    
Moisture  
Dew Point 46 °F    
Average Humidity 79    
Maximum Humidity 87    
Minimum Humidity 72    
Precipitation  
Precipitation 0.00 in - - ()
Sea Level Pressure  
Sea Level Pressure 29.57 in    
Wind  
Wind Speed 12 mph ()    
Max Wind Speed 22 mph    
Max Gust Speed 29 mph    
Visibility 5.8 miles    
Events Rain    
Averages and records for this station are not official NWS values.
T = Trace of Precipitation, MM = Missing Value Source: Averaged Metar Reports

Daily Weather History Graph

Daily Weather History Graph

Search for Another Location

Airport:

Trip Planner

Search our weather history database for the weather conditions in past years. The results will help you decide how hot, cold, wet, or windy it might be!

Date:

Astronomy

Nov. 05, 2012 Rise Set
Actual Time 6:28 AM CET 4:16 PM CET
Civil Twilight 5:55 AM CET 4:48 PM CET
Nautical Twilight 5:19 AM CET 5:24 PM CET
Astronomical Twilight 4:44 AM CET 6:00 PM CET
Moon 9:34 PM CET (11/5) 11:39 AM CET (11/5)
Length of Visible Light 10h 52m
Length of Day
9h 48m
Waning Gibbous, 65% of the Moon is Illuminated
Nov 5
Waning Gibbous
Nov 7
Last Quarter
Nov 13
New
Nov 20
First Quarter
Nov 28
Full

Hourly Weather History & Observations

Time (CET) Temp. Windchill Dew Point Humidity Pressure Visibility Wind Dir Wind Speed Gust Speed Precip Events Conditions
12:15 AM 57.2 °F - 48.2 °F 72% 29.71 in - South 11.2 mph - N/A   Clear
12:45 AM 55.4 °F - 48.2 °F 77% 29.68 in - South 11.2 mph - N/A   Clear
1:15 AM 55.4 °F - 48.2 °F 77% 29.68 in - SSE 8.9 mph - N/A   Clear
1:45 AM 55.4 °F - 48.2 °F 77% 29.68 in - SSE 8.9 mph - N/A   Clear
2:15 AM 55.4 °F - 48.2 °F 77% 29.65 in - SSE 11.2 mph - N/A   Clear
2:45 AM 55.4 °F - 48.2 °F 77% 29.65 in - SSE 11.2 mph - N/A   Clear
3:15 AM 55.4 °F - 48.2 °F 77% 29.62 in - SSE 13.4 mph - N/A   Clear
3:45 AM 55.4 °F - 48.2 °F 77% 29.62 in - SSE 11.2 mph - N/A   Clear
4:15 AM 57.2 °F - 48.2 °F 72% 29.59 in - South 15.7 mph - N/A   Clear
4:45 AM 55.4 °F - 48.2 °F 77% 29.56 in - SSE 15.7 mph - N/A   Clear
5:01 AM 57.2 °F - 48.2 °F 72% 29.56 in - South 15.7 mph 26.8 mph N/A   Clear
5:15 AM 55.4 °F - 48.2 °F 77% 29.56 in - South 15.7 mph - N/A   Clear
5:45 AM - - - N/A% - 3.1 mi South 11.2 mph 22.4 mph N/A Rain Rain
6:15 AM 57.2 °F - 48.2 °F 72% 29.53 in - South 17.9 mph - N/A   Clear
6:25 AM 57.2 °F - 48.2 °F 72% 29.53 in 6.2 mi South 17.9 mph - N/A Rain Light Rain
6:45 AM 55.4 °F - 50.0 °F 82% 29.50 in - South 17.9 mph 29.1 mph N/A   Clear
7:15 AM 55.4 °F - 50.0 °F 82% 29.50 in - South 20.1 mph - N/A   Clear
7:45 AM 57.2 °F - 50.0 °F 77% 29.47 in 6.2 mi South 20.1 mph - N/A Rain Light Rain Showers
8:15 AM 57.2 °F - 50.0 °F 77% 29.47 in - South 22.4 mph - N/A   Clear
8:45 AM - - - N/A% - 5.0 mi South 20.1 mph - N/A Rain Rain Showers
9:15 AM 59.0 °F - 51.8 °F 77% 29.47 in 6.2 mi South 22.4 mph - N/A Rain Light Rain Showers
9:45 AM 59.0 °F - 51.8 °F 77% 29.44 in 6.2 mi South 22.4 mph - N/A Rain Light Rain Showers
10:15 AM 60.8 °F - 51.8 °F 72% 29.44 in 6.2 mi South 22.4 mph - N/A Rain Light Rain Showers
11:15 AM 62.6 °F - 53.6 °F 72% 29.44 in - SW 11.2 mph - N/A   Clear
11:45 AM - - - N/A% - 5.0 mi WSW 11.2 mph - N/A Rain Rain Showers
12:15 PM 55.4 °F - 48.2 °F 77% 29.47 in 6.2 mi WNW 15.7 mph - N/A   Mostly Cloudy
12:45 PM 51.8 °F - 46.4 °F 82% 29.47 in 6.2 mi WNW 15.7 mph 29.1 mph N/A   Mostly Cloudy
1:15 PM 51.8 °F - 46.4 °F 82% 29.50 in 6.2 mi WNW 13.4 mph - N/A   Mostly Cloudy
1:31 PM 51.8 °F - 46.4 °F 82% 29.50 in 6.2 mi WNW 13.4 mph - N/A Rain Light Rain Showers
1:45 PM 50.0 °F - 46.4 °F 87% 29.50 in 6.2 mi WNW 13.4 mph 24.6 mph N/A   Mostly Cloudy
2:15 PM 50.0 °F - 46.4 °F 87% 29.50 in 6.2 mi WNW 8.9 mph - N/A Rain Light Rain Showers
2:45 PM - - - N/A% - 5.0 mi WNW 11.2 mph 22.4 mph N/A Rain Rain Showers
3:15 PM 50.0 °F - 46.4 °F 87% 29.50 in 6.2 mi West 11.2 mph - N/A Rain Light Rain Showers
3:45 PM 50.0 °F - 46.4 °F 87% 29.50 in 6.2 mi West 11.2 mph - N/A Rain Light Rain Showers
4:15 PM 50.0 °F - 46.4 °F 87% 29.50 in 6.2 mi West 6.7 mph - N/A Rain Light Rain Showers
4:45 PM 50.0 °F - 44.6 °F 82% 29.53 in 6.2 mi West 6.7 mph - N/A Rain Light Rain
5:15 PM 50.0 °F - 46.4 °F 87% 29.56 in 6.2 mi West 11.2 mph - N/A Rain Light Rain
5:45 PM - - - N/A% - 5.0 mi West 8.9 mph - N/A Rain Light Rain
6:15 PM 48.2 °F - 44.6 °F 87% 29.53 in - WNW 11.2 mph - N/A   Clear
6:45 PM 48.2 °F - 42.8 °F 82% 29.56 in - West 8.9 mph - N/A   Clear
7:15 PM 48.2 °F - 42.8 °F 82% 29.56 in - West 8.9 mph - N/A   Clear
7:45 PM 48.2 °F - 42.8 °F 82% 29.62 in - West 8.9 mph - N/A   Clear
8:15 PM 48.2 °F - 41.0 °F 76% 29.62 in - West 11.2 mph - N/A   Clear
8:45 PM 48.2 °F - 41.0 °F 76% 29.62 in - WNW 8.9 mph 20.1 mph N/A   Clear
9:15 PM 48.2 °F - 41.0 °F 76% 29.65 in - West 15.7 mph - N/A   Clear
9:45 PM 46.4 °F 41.2 °F 41.0 °F 81% 29.68 in - West 11.2 mph - N/A   Clear
10:15 PM 46.4 °F 41.2 °F 39.2 °F 76% 29.71 in - West 11.2 mph - N/A   Clear
10:45 PM 44.6 °F 39.8 °F 39.2 °F 81% 29.71 in - West 8.9 mph - N/A   Clear
11:15 PM 44.6 °F 42.3 °F 39.2 °F 81% 29.74 in - WNW 4.5 mph - N/A   Clear
11:45 PM 44.6 °F 40.8 °F 39.2 °F 81% 29.74 in - WNW 6.7 mph - N/A   Clear